Time,TemperatureF,DewpointF,PressureIn,WindDirection,WindDirectionDegrees,WindSpeedMPH,WindSpeedGustMPH,Humidity,HourlyPrecipIn,Conditions,Clouds,dailyrainin,SolarRadiationWatts/m^2,SoftwareType,DateUTC
2013-01-01 00:03:00,37.0,30.0,-100.00,WSW,237,2.0,4.0,77,0.00,,,0.00,0.000000,,2013-01-01 05:03:00,
2013-01-01 00:33:00,37.0,31.0,-100.00,East,97,2.0,3.0,80,0.00,,,0.00,0.000000,,2013-01-01 05:33:00,
2013-01-01 00:42:00,37.0,31.0,-100.00,East,97,2.0,3.0,80,0.00,,,0.00,0.000000,,2013-01-01 05:42:00,
2013-01-01 00:53:00,37.0,31.0,-100.00,East,97,2.0,3.0,80,0.00,,,0.00,0.000000,,2013-01-01 05:53:00,
2013-01-01 01:02:00,37.0,31.0,-100.00,East,97,2.0,3.0,80,0.00,,,0.00,0.000000,,2013-01-01 06:02:00,
2013-01-01 01:33:00,37.0,30.0,-100.00,ENE,67,2.0,4.0,75,0.00,,,0.00,0.000000,,2013-01-01 06:33:00,
2013-01-01 01:43:00,37.0,30.0,-100.00,ENE,67,2.0,4.0,75,0.00,,,0.00,0.000000,,2013-01-01 06:43:00,
2013-01-01 01:52:00,37.0,30.0,-100.00,ENE,67,2.0,4.0,75,0.00,,,0.00,0.000000,,2013-01-01 06:52:00,
2013-01-01 02:02:00,37.0,30.0,-100.00,ENE,67,2.0,4.0,75,0.00,,,0.00,0.000000,,2013-01-01 07:02:00,
2013-01-01 02:32:00,38.0,30.0,-100.00,East,101,2.0,5.0,72,0.00,,,0.00,0.000000,,2013-01-01 07:32:00,
2013-01-01 02:42:00,38.0,30.0,-100.00,East,101,2.0,5.0,72,0.00,,,0.00,0.000000,,2013-01-01 07:42:00,
2013-01-01 02:53:00,38.0,30.0,-100.00,East,101,2.0,5.0,72,0.00,,,0.00,0.000000,,2013-01-01 07:53:00,
2013-01-01 03:02:00,38.0,30.0,-100.00,East,101,2.0,5.0,72,0.00,,,0.00,0.000000,,2013-01-01 08:02:00,
2013-01-01 03:32:00,38.0,30.0,-100.00,SE,135,2.0,5.0,72,0.00,,,0.00,0.000000,,2013-01-01 08:32:00,
2013-01-01 03:42:00,38.0,30.0,-100.00,SE,135,2.0,5.0,72,0.00,,,0.00,0.000000,,2013-01-01 08:42:00,
2013-01-01 03:53:00,38.0,30.0,-100.00,SE,135,2.0,5.0,72,0.00,,,0.00,0.000000,,2013-01-01 08:53:00,
2013-01-01 04:02:00,38.0,30.0,-100.00,SE,135,2.0,5.0,72,0.00,,,0.00,0.000000,,2013-01-01 09:02:00,
2013-01-01 04:32:00,37.0,32.0,-100.00,WNW,289,1.0,3.0,82,0.01,,,0.01,0.000000,,2013-01-01 09:32:00,
2013-01-01 04:42:00,37.0,32.0,-100.00,WNW,289,1.0,3.0,82,0.01,,,0.01,0.000000,,2013-01-01 09:42:00,
2013-01-01 04:52:00,37.0,32.0,-100.00,WNW,289,1.0,3.0,82,0.01,,,0.01,0.000000,,2013-01-01 09:52:00,
2013-01-01 05:02:00,37.0,32.0,-100.00,WNW,289,1.0,3.0,82,0.01,,,0.01,0.000000,,2013-01-01 10:02:00,
2013-01-01 05:33:00,36.0,34.0,-100.00,WNW,303,1.0,12.0,92,0.05,,,0.06,0.000000,,2013-01-01 10:33:00,
2013-01-01 05:43:00,36.0,34.0,-100.00,WNW,303,1.0,12.0,92,0.05,,,0.06,0.000000,,2013-01-01 10:43:00,
2013-01-01 05:53:00,36.0,34.0,-100.00,WNW,303,1.0,12.0,92,0.05,,,0.06,0.000000,,2013-01-01 10:53:00,
2013-01-01 06:02:00,36.0,34.0,-100.00,WNW,303,1.0,12.0,92,0.05,,,0.06,0.000000,,2013-01-01 11:02:00,
2013-01-01 06:33:00,36.0,35.0,-100.00,NNW,335,1.0,2.0,97,0.05,,,0.11,0.000000,,2013-01-01 11:33:00,
2013-01-01 06:43:00,36.0,35.0,-100.00,NNW,335,1.0,2.0,97,0.05,,,0.11,0.000000,,2013-01-01 11:43:00,
2013-01-01 06:53:00,36.0,35.0,-100.00,NNW,335,1.0,2.0,97,0.05,,,0.11,0.000000,,2013-01-01 11:53:00,
2013-01-01 07:03:00,36.0,35.0,-100.00,NNW,335,1.0,2.0,97,0.05,,,0.11,0.000000,,2013-01-01 12:03:00,
2013-01-01 07:33:00,36.0,36.0,-100.00,NE,36,1.0,4.0,99,0.06,,,0.17,0.000000,,2013-01-01 12:33:00,
2013-01-01 07:43:00,36.0,36.0,-100.00,NE,36,1.0,4.0,99,0.06,,,0.17,0.000000,,2013-01-01 12:43:00,
2013-01-01 07:53:00,36.0,36.0,-100.00,NE,36,1.0,4.0,99,0.06,,,0.17,0.000000,,2013-01-01 12:53:00,
2013-01-01 08:03:00,36.0,36.0,-100.00,NE,36,1.0,4.0,99,0.06,,,0.17,0.000000,,2013-01-01 13:03:00,
2013-01-01 08:33:00,36.0,36.0,-100.00,SSE,161,3.0,4.0,100,0.04,,,0.21,1.000000,,2013-01-01 13:33:00,
2013-01-01 08:43:00,36.0,36.0,-100.00,SSE,161,3.0,4.0,100,0.04,,,0.21,1.000000,,2013-01-01 13:43:00,
2013-01-01 08:53:00,36.0,36.0,-100.00,SSE,161,3.0,4.0,100,0.04,,,0.21,1.000000,,2013-01-01 13:53:00,
2013-01-01 09:02:00,36.0,36.0,-100.00,SSE,161,3.0,4.0,100,0.04,,,0.21,1.000000,,2013-01-01 14:02:00,
2013-01-01 09:33:00,36.0,36.0,-100.00,SSE,155,3.0,6.0,100,0.06,,,0.27,9.000000,,2013-01-01 14:33:00,
2013-01-01 09:43:00,36.0,36.0,-100.00,SSE,155,3.0,6.0,100,0.06,,,0.27,9.000000,,2013-01-01 14:43:00,
2013-01-01 09:53:00,36.0,36.0,-100.00,SSE,155,3.0,6.0,100,0.06,,,0.27,9.000000,,2013-01-01 14:53:00,
2013-01-01 10:03:00,36.0,36.0,-100.00,SSE,155,3.0,6.0,100,0.06,,,0.27,9.000000,,2013-01-01 15:03:00,
2013-01-01 10:33:00,37.0,37.0,-100.00,NNE,27,3.0,7.0,99,0.01,,,0.28,20.000000,,2013-01-01 15:33:00,
2013-01-01 10:43:00,37.0,37.0,-100.00,NNE,27,3.0,7.0,99,0.01,,,0.28,20.000000,,2013-01-01 15:43:00,
2013-01-01 10:53:00,37.0,37.0,-100.00,NNE,27,3.0,7.0,99,0.01,,,0.28,20.000000,,2013-01-01 15:53:00,
2013-01-01 11:02:00,37.0,37.0,-100.00,NNE,27,3.0,7.0,99,0.01,,,0.28,20.000000,,2013-01-01 16:02:00,
2013-01-01 11:33:00,38.0,38.0,-100.00,SSE,150,6.0,11.0,99,0.05,,,0.33,36.000000,,2013-01-01 16:33:00,
2013-01-01 11:43:00,38.0,38.0,-100.00,SSE,150,6.0,11.0,99,0.05,,,0.33,36.000000,,2013-01-01 16:43:00,
2013-01-01 11:53:00,38.0,38.0,-100.00,SSE,150,6.0,11.0,99,0.05,,,0.33,36.000000,,2013-01-01 16:53:00,
2013-01-01 12:02:00,38.0,38.0,-100.00,SSE,150,6.0,11.0,99,0.05,,,0.33,36.000000,,2013-01-01 17:02:00,
2013-01-01 12:33:00,39.0,39.0,-100.00,ESE,102,2.0,10.0,99,0.00,,,0.33,35.000000,,2013-01-01 17:33:00,
2013-01-01 12:43:00,39.0,39.0,-100.00,ESE,102,2.0,10.0,99,0.00,,,0.33,35.000000,,2013-01-01 17:43:00,
2013-01-01 12:53:00,39.0,39.0,-100.00,ESE,102,2.0,10.0,99,0.00,,,0.33,35.000000,,2013-01-01 17:53:00,
2013-01-01 13:03:00,39.0,39.0,-100.00,ESE,102,2.0,10.0,99,0.00,,,0.33,35.000000,,2013-01-01 18:03:00,
2013-01-01 13:33:00,42.0,41.0,-100.00,SSE,153,3.0,5.0,98,0.00,,,0.33,79.000000,,2013-01-01 18:33:00,
2013-01-01 13:43:00,42.0,41.0,-100.00,SSE,153,3.0,5.0,98,0.00,,,0.33,79.000000,,2013-01-01 18:43:00,
2013-01-01 13:53:00,42.0,41.0,-100.00,SSE,153,3.0,5.0,98,0.00,,,0.33,79.000000,,2013-01-01 18:53:00,
2013-01-01 14:02:00,42.0,41.0,-100.00,SSE,153,3.0,5.0,98,0.00,,,0.33,79.000000,,2013-01-01 19:02:00,
2013-01-01 14:33:00,44.0,44.0,-100.00,SE,131,2.0,6.0,99,0.02,,,0.35,49.000000,,2013-01-01 19:33:00,
2013-01-01 14:43:00,44.0,44.0,-100.00,SE,131,2.0,6.0,99,0.02,,,0.35,49.000000,,2013-01-01 19:43:00,
2013-01-01 14:53:00,44.0,44.0,-100.00,SE,131,2.0,6.0,99,0.02,,,0.35,49.000000,,2013-01-01 19:53:00,
2013-01-01 15:02:00,44.0,44.0,-100.00,SE,131,2.0,6.0,99,0.02,,,0.35,49.000000,,2013-01-01 20:02:00,
2013-01-01 15:32:00,44.0,44.0,-100.00,NW,323,2.0,6.0,99,0.05,,,0.40,35.000000,,2013-01-01 20:32:00,
2013-01-01 15:42:00,44.0,44.0,-100.00,NW,323,2.0,6.0,99,0.05,,,0.40,35.000000,,2013-01-01 20:42:00,
2013-01-01 15:53:00,44.0,44.0,-100.00,NW,323,2.0,6.0,99,0.05,,,0.40,35.000000,,2013-01-01 20:53:00,
2013-01-01 16:03:00,44.0,44.0,-100.00,NW,323,2.0,6.0,99,0.05,,,0.40,35.000000,,2013-01-01 21:03:00,
2013-01-01 16:33:00,44.0,44.0,-100.00,South,187,1.0,3.0,100,0.08,,,0.48,21.000000,,2013-01-01 21:33:00,
2013-01-01 16:43:00,44.0,44.0,-100.00,South,187,1.0,3.0,100,0.08,,,0.48,21.000000,,2013-01-01 21:43:00,
2013-01-01 16:53:00,44.0,44.0,-100.00,South,187,1.0,3.0,100,0.08,,,0.48,21.000000,,2013-01-01 21:53:00,
2013-01-01 17:03:00,44.0,44.0,-100.00,South,187,1.0,3.0,100,0.08,,,0.48,21.000000,,2013-01-01 22:03:00,
2013-01-01 17:33:00,44.0,44.0,-100.00,SSE,166,2.0,4.0,100,0.02,,,0.50,12.000000,,2013-01-01 22:33:00,
2013-01-01 17:43:00,44.0,44.0,-100.00,SSE,166,2.0,4.0,100,0.02,,,0.50,12.000000,,2013-01-01 22:43:00,
2013-01-01 17:53:00,44.0,44.0,-100.00,SSE,166,2.0,4.0,100,0.02,,,0.50,12.000000,,2013-01-01 22:53:00,
2013-01-01 18:03:00,44.0,44.0,-100.00,SSE,166,2.0,4.0,100,0.02,,,0.50,12.000000,,2013-01-01 23:03:00,
2013-01-01 18:33:00,43.0,43.0,-100.00,NE,43,2.0,4.0,100,0.01,,,0.51,0.000000,,2013-01-01 23:33:00,
2013-01-01 18:42:00,43.0,43.0,-100.00,NE,43,2.0,4.0,100,0.01,,,0.51,0.000000,,2013-01-01 23:42:00,
2013-01-01 18:53:00,43.0,43.0,-100.00,NE,43,2.0,4.0,100,0.01,,,0.51,0.000000,,2013-01-01 23:53:00,
2013-01-01 19:03:00,43.0,43.0,-100.00,NE,43,2.0,4.0,100,0.01,,,0.51,0.000000,,2013-01-02 00:03:00,
2013-01-01 19:33:00,43.0,43.0,-100.00,South,175,2.0,4.0,100,0.05,,,0.56,0.000000,,2013-01-02 00:33:00,
2013-01-01 19:43:00,43.0,43.0,-100.00,South,175,2.0,4.0,100,0.05,,,0.56,0.000000,,2013-01-02 00:43:00,
2013-01-01 19:53:00,43.0,43.0,-100.00,South,175,2.0,4.0,100,0.05,,,0.56,0.000000,,2013-01-02 00:53:00,
2013-01-01 20:02:00,43.0,43.0,-100.00,South,175,2.0,4.0,100,0.05,,,0.56,0.000000,,2013-01-02 01:02:00,
2013-01-01 20:33:00,43.0,43.0,-100.00,SSW,212,1.0,5.0,100,0.05,,,0.61,0.000000,,2013-01-02 01:33:00,
2013-01-01 20:42:00,43.0,43.0,-100.00,SSW,212,1.0,5.0,100,0.05,,,0.61,0.000000,,2013-01-02 01:42:00,
2013-01-01 20:53:00,43.0,43.0,-100.00,SSW,212,1.0,5.0,100,0.05,,,0.61,0.000000,,2013-01-02 01:53:00,
2013-01-01 21:02:00,43.0,43.0,-100.00,SSW,212,1.0,5.0,100,0.05,,,0.61,0.000000,,2013-01-02 02:02:00,
2013-01-01 21:32:00,43.0,43.0,-100.00,SSE,148,2.0,3.0,100,0.03,,,0.64,0.000000,,2013-01-02 02:32:00,
2013-01-01 21:43:00,43.0,43.0,-100.00,SSE,148,2.0,3.0,100,0.03,,,0.64,0.000000,,2013-01-02 02:43:00,
2013-01-01 21:53:00,43.0,43.0,-100.00,SSE,148,2.0,3.0,100,0.03,,,0.64,0.000000,,2013-01-02 02:53:00,
2013-01-01 22:02:00,43.0,43.0,-100.00,SSE,148,2.0,3.0,100,0.03,,,0.64,0.000000,,2013-01-02 03:02:00,
2013-01-01 22:32:00,43.0,43.0,-100.00,ESE,117,0.0,1.0,100,0.05,,,0.69,0.000000,,2013-01-02 03:32:00,
2013-01-01 22:42:00,43.0,43.0,-100.00,ESE,117,0.0,1.0,100,0.05,,,0.69,0.000000,,2013-01-02 03:42:00,
2013-01-01 22:53:00,43.0,43.0,-100.00,ESE,117,0.0,1.0,100,0.05,,,0.69,0.000000,,2013-01-02 03:53:00,
2013-01-01 23:03:00,43.0,43.0,-100.00,ESE,117,0.0,1.0,100,0.05,,,0.69,0.000000,,2013-01-02 04:03:00,
2013-01-01 23:33:00,43.0,43.0,-100.00,ESE,113,0.0,2.0,100,0.01,,,0.70,0.000000,,2013-01-02 04:33:00,
2013-01-01 23:42:00,43.0,43.0,-100.00,ESE,113,0.0,2.0,100,0.01,,,0.70,0.000000,,2013-01-02 04:42:00,
2013-01-01 23:53:00,43.0,43.0,-100.00,ESE,113,0.0,2.0,100,0.01,,,0.70,0.000000,,2013-01-02 04:53:00,